Location: Étang Rond
(42.7927°N, 1.0661°E)
Time: 22:49:58
(UTC+00:00)

Cosmos 1300 Rocket - Pass Details

Date: 08 November 2025
Orbit: 594 x 620 km, 82.5° (Epoch: 13 December)

Event Time Altitude Azimuth Distance (km) Brightness Sun altitude
Rises 05:53:46 0° 341° (NNW) 2,877 6.7 -8.7°
Reaches altitude 10° 05:56:10 10° 332° (NNW) 1,963 5.7 -8.3°
Maximum altitude 06:00:00 31° 270° (W) 1,061 4.3 -7.6°
Drops below altitude 10° 06:03:47 10° 208° (SSW) 1,935 6.0 -6.9°
Sets 06:06:08 0° 198° (SSW) 2,829 6.9 -6.5°
